Home > Weather > Grande Prairie > Past weeks

Flag for Canada Weather for the Past 2 Weeks in Grande Prairie, Alberta, Canada

Now
30 °F

Scattered clouds.


Feels Like: 30 °F
Forecast: 21 / 38 °F
Wind: No wind

Location: Grande Prairie

Current Time: Feb 13, 2016 at 1:35:43 PM

Latest Report: Feb 13, 2016 at 1:00 PM


Visibility: 25 mi

Pressure: 29.87 "Hg (27.50 "Hg at 657m altitude)

Humidity: 93%

Dew point: 28 °F

Location of Grande PrairieLocation

Historic Weather in Grande Prairie — Graph

°F

Grande Prairie Temperature Yesterday

Maximum temperature yesterday: 27 °F (at 1:00 PM)
Minimum temperature yesterday: 19 °F (at 1:00 AM)
Average temperature yesterday: 24 °F

High & Low Weather Summary for the Past Weeks

 TemperatureHumidityPressure
High46 °F (Feb 9, 3:00 PM)100% (Feb 10, 8:00 AM)30.48 "Hg (Feb 10, 8:00 AM)
Low-4 °F (Feb 3, 8:00 AM)44% (Feb 6, 5:00 PM)29.44 "Hg (Feb 5, 11:00 PM)
Average25 °F79%30.04 "Hg
* Reported Jan 29 12:00 Noon — Feb 13 12:00 Noon, Grande Prairie, Weather by CustomWeather, © 2016

Note: Actual official high and low records may vary slightly from our data, if they occured in-between our weather recording intervals... More about our weather records

Advertising

Grande Prairie Weather History for the Previous 24 Hours

 ConditionsComfort  
Time TempWeatherWind HumidityBarometerVisibility
12:00 PM
Sat, Feb 13
27 °FScattered clouds.No wind100%29.88 "Hg25 mi
11:00 AM27 °FPartly sunny.5 mph93%29.89 "Hg25 mi
10:00 AM14 °FPartly sunny.2 mph92%29.91 "Hg20 mi
9:00 AM10 °FPartly sunny.6 mph92%29.92 "Hg20 mi
8:00 AM14 °FPassing clouds.No wind85%29.91 "Hg20 mi
7:00 AM12 °FClear.6 mph92%29.92 "Hg15 mi
6:00 AM10 °FIce fog.5 mph85%29.91 "Hg3 mi
5:00 AM12 °FIce fog.9 mph92%29.89 "Hg1 mi
4:00 AM16 °FIce fog.2 mph93%29.88 "Hg1 mi
3:00 AM18 °FIce fog.5 mph93%29.86 "Hg1 mi
2:00 AM21 °FIce fog.6 mph93%29.85 "Hg0 mi
1:00 AM21 °FIce fog.2 mph93%29.85 "Hg0 mi
12:00 AM23 °FIce fog.2 mph100%29.86 "Hg0 mi
11:00 PM
Fri, Feb 12
23 °FIce fog.3 mph100%29.87 "Hg0 mi
10:00 PM21 °FIce fog.2 mph93%29.89 "Hg2 mi
9:00 PM23 °FMostly cloudy.3 mph93%29.89 "Hg8 mi
8:00 PM25 °FMostly cloudy.3 mph93%29.91 "Hg10 mi
7:00 PM27 °FMostly cloudy.No wind93%29.92 "Hg10 mi
6:00 PM27 °FLight snow. Ice fog.6 mph93%29.93 "Hg5 mi
5:00 PM27 °FLight snow. Ice fog.No wind93%29.97 "Hg3 mi
4:00 PM27 °FLight snow. Ice fog.2 mph93%29.98 "Hg3 mi
3:53 PM27 °FLight snow. Ice fog.No wind93%29.98 "Hg3 mi
3:00 PM27 °FLight snow. Ice fog.6 mph86%30.02 "Hg3 mi
2:00 PM27 °FIce fog.2 mph86%30.03 "Hg6 mi
1:00 PM27 °FIce fog.10 mph86%30.03 "Hg6 mi
Weather by CustomWeather, © 2016

See weather overviewHow to use our weather pages